カタログに戻る

SL-8 R/B

運用中PO
NORAD 14451·ROCKET BODY·🇷🇺 Russia

打ち上げ Oct 26, 1983 から Plesetsk Cosmodrome

Loading…

次のパス (今後24時間)

TLE

最新Source: Space-Track

元期: Sep 14, 2026, 11:06 UTC

1 14451U 83108B   26257.46264201  .00000060  00000-0  44591-4 0  9995
2 14451  82.9323 171.8452 0031919 341.6467  18.3537 13.78380760155973

AllMySatでSL-8 R/Bをリアルタイム追跡

Download on the App Store